Location: Prescott
(34.5400°N, 112.4680°W)
Time: 17:11:49
(UTC-07:00)

OTV 5 (USA 277) - Pass Details

Date: 22 February 2019
Orbit: 315 x 320 km, 54.5° (Epoch: 14 March)

Event Time Altitude Azimuth Distance (km) Brightness Sun altitude
Rises 20:09:21 0° 245° (WSW) 2,049 ? -23.3°
Reaches altitude 10° 20:11:30 10° 259° (WSW) 1,222 ? -23.7°
Enters shadow 20:12:52 20° 284° (WNW) 803 ? -24.0°
